SCX4328 KGFK-KMSP

Flight info

Callsign SCX4328
Flight time 0h 51m
Altitude 35000
Route TTAIL BAINY3
Aircraft B739/M-SDE2E3FGHIRWXY/LB1

Departure

Time 2026-05-06 00:44
Airport Grand Forks International Airport (KGFK)

Arrival

Time 2026-05-06 01:35
Airport Minneapolis–Saint Paul International Airport / Wold–Chamberlain Field (KMSP)
Time Latitude Longitude Altitude Speed Heading
2026-05-06 00:30 47.94279 -97.17746 837 ft 0 kts 141°
2026-05-06 00:38 47.94287 -97.17756 844 ft 2 kts 137°
2026-05-06 00:38 47.94299 -97.17773 838 ft 2 kts 133°
2026-05-06 00:39 47.94309 -97.17791 841 ft 2 kts 127°
2026-05-06 00:39 47.94318 -97.17812 849 ft 2 kts 118°
2026-05-06 00:39 47.94326 -97.17833 836 ft 2 kts 133°
2026-05-06 00:39 47.94332 -97.17841 840 ft 0 kts 171°
2026-05-06 00:40 47.94283 -97.17840 846 ft 10 kts 179°
2026-05-06 00:41 47.94221 -97.17881 845 ft 10 kts 241°
2026-05-06 00:41 47.94179 -97.17958 840 ft 10 kts 200°
2026-05-06 00:41 47.94110 -97.17963 847 ft 10 kts 180°
2026-05-06 00:41 47.94042 -97.17963 847 ft 10 kts 180°
2026-05-06 00:42 47.93976 -97.17962 844 ft 9 kts 180°
2026-05-06 00:42 47.93925 -97.18010 847 ft 9 kts 250°
2026-05-06 00:42 47.93923 -97.18102 844 ft 9 kts 279°
2026-05-06 00:42 47.93946 -97.18125 840 ft 8 kts 347°
2026-05-06 00:43 47.93962 -97.18126 846 ft 0 kts
2026-05-06 00:43 47.93964 -97.18126 847 ft 5 kts
2026-05-06 00:43 47.94332 -97.18125 845 ft 99 kts 359°
2026-05-06 00:44 47.95264 -97.18117 1022 ft 154 kts 358°
2026-05-06 00:44 47.96317 -97.18090 2158 ft 148 kts 359°
2026-05-06 00:44 47.97375 -97.18002 3059 ft 162 kts
2026-05-06 00:44 47.98597 -97.17906 3419 ft 191 kts
2026-05-06 00:45 47.99882 -97.17045 3696 ft 224 kts 44°
2026-05-06 00:45 48.00524 -97.14817 4111 ft 254 kts 81°
2026-05-06 00:45 48.00273 -97.12115 4705 ft 275 kts 109°
2026-05-06 00:45 47.99186 -97.09764 5666 ft 279 kts 141°
2026-05-06 00:46 47.97459 -97.08536 6746 ft 277 kts 167°
2026-05-06 00:46 47.95558 -97.07951 7644 ft 281 kts 172°
2026-05-06 00:46 47.93609 -97.07444 8521 ft 288 kts 172°
2026-05-06 00:46 47.91626 -97.06925 9487 ft 290 kts 171°
2026-05-06 00:47 47.89619 -97.06374 10332 ft 297 kts 171°
2026-05-06 00:47 47.87513 -97.05771 10687 ft 321 kts 170°
2026-05-06 00:47 47.85233 -97.05096 10969 ft 345 kts 170°
2026-05-06 00:47 47.82838 -97.04363 11572 ft 355 kts 170°
2026-05-06 00:48 47.80435 -97.03612 12434 ft 359 kts 169°
2026-05-06 00:48 47.77981 -97.02836 13275 ft 363 kts 169°
2026-05-06 00:48 47.75491 -97.02043 14029 ft 368 kts 169°
2026-05-06 00:48 47.72971 -97.01238 14746 ft 372 kts 169°
2026-05-06 00:49 47.70419 -97.00421 15469 ft 376 kts 169°
2026-05-06 00:49 47.67843 -96.99597 16180 ft 381 kts 170°
2026-05-06 00:49 47.65237 -96.98764 16882 ft 385 kts 170°
2026-05-06 00:49 47.62602 -96.97922 17576 ft 390 kts 170°
2026-05-06 00:50 47.59933 -96.97071 18264 ft 394 kts 170°
2026-05-06 00:50 47.57237 -96.96211 18877 ft 398 kts 170°
2026-05-06 00:50 47.54519 -96.95345 19520 ft 401 kts 170°
2026-05-06 00:50 47.51777 -96.94473 20154 ft 404 kts 171°
2026-05-06 00:51 47.49013 -96.93595 20770 ft 408 kts 171°
2026-05-06 00:51 47.46220 -96.92709 21382 ft 412 kts 171°
2026-05-06 00:51 47.43407 -96.91817 21985 ft 415 kts 171°
2026-05-06 00:51 47.40569 -96.90919 22579 ft 419 kts 171°
2026-05-06 00:52 47.37706 -96.90013 23157 ft 422 kts 171°
2026-05-06 00:52 47.34820 -96.89101 23707 ft 426 kts 171°
2026-05-06 00:52 47.31945 -96.88193 24179 ft 429 kts 171°
2026-05-06 00:52 47.29012 -96.87269 24689 ft 431 kts 171°
2026-05-06 00:53 47.26069 -96.86342 25192 ft 434 kts 171°
2026-05-06 00:53 47.23108 -96.85410 25673 ft 437 kts 171°
2026-05-06 00:53 47.20128 -96.84474 26139 ft 439 kts 171°
2026-05-06 00:53 47.17127 -96.83532 26582 ft 442 kts 172°
2026-05-06 00:54 47.14113 -96.82587 27069 ft 444 kts 172°
2026-05-06 00:54 47.11085 -96.81639 27529 ft 446 kts 172°
2026-05-06 00:54 47.08033 -96.80685 27947 ft 449 kts 172°
2026-05-06 00:54 47.04960 -96.79725 28378 ft 452 kts 172°
2026-05-06 00:55 47.01879 -96.78764 28800 ft 455 kts 172°
2026-05-06 00:55 46.98774 -96.77796 29217 ft 457 kts 172°
2026-05-06 00:55 46.95653 -96.76824 29601 ft 459 kts 173°
2026-05-06 00:55 46.92518 -96.75849 29991 ft 462 kts 173°
2026-05-06 00:56 46.89364 -96.74869 30324 ft 464 kts 173°
2026-05-06 00:56 46.86244 -96.73901 30656 ft 466 kts 173°
2026-05-06 00:56 46.83029 -96.72904 31063 ft 465 kts 173°
2026-05-06 00:56 46.79910 -96.71937 31463 ft 465 kts 173°
2026-05-06 00:57 46.76750 -96.70959 31809 ft 465 kts 173°
2026-05-06 00:57 46.73579 -96.69920 32145 ft 469 kts 168°
2026-05-06 00:57 46.70607 -96.67824 32437 ft 484 kts 148°
2026-05-06 00:57 46.68138 -96.64437 32834 ft 493 kts 131°
2026-05-06 00:58 46.66379 -96.60137 33180 ft 499 kts 116°
2026-05-06 00:58 46.65002 -96.55488 33548 ft 500 kts 115°
2026-05-06 00:58 46.63667 -96.50808 33829 ft 502 kts 114°
2026-05-06 00:58 46.62333 -96.46109 34117 ft 503 kts 115°
2026-05-06 00:59 46.60985 -96.41414 34395 ft 503 kts 115°
2026-05-06 00:59 46.59622 -96.36746 34735 ft 501 kts 115°
2026-05-06 00:59 46.58247 -96.32098 35037 ft 500 kts 115°
2026-05-06 01:00 46.55452 -96.22773 35028 ft 502 kts 116°
2026-05-06 01:00 46.52659 -96.13519 35026 ft 498 kts 116°
2026-05-06 01:01 46.49876 -96.04325 35035 ft 496 kts 116°
2026-05-06 01:01 46.47116 -95.95231 35032 ft 495 kts 116°
2026-05-06 01:02 46.44334 -95.86095 35031 ft 495 kts 116°
2026-05-06 01:02 46.41540 -95.76951 35002 ft 496 kts 117°
2026-05-06 01:03 46.38733 -95.67801 35022 ft 498 kts 117°
2026-05-06 01:03 46.36386 -95.60175 35037 ft 500 kts 117°
2026-05-06 01:04 46.33544 -95.50970 35030 ft 502 kts 117°
2026-05-06 01:04 46.30679 -95.41726 35022 ft 504 kts 117°
2026-05-06 01:05 46.27799 -95.32462 35021 ft 506 kts 117°
2026-05-06 01:05 46.24902 -95.23181 34998 ft 506 kts 117°
2026-05-06 01:06 46.22005 -95.13931 34999 ft 506 kts 117°
2026-05-06 01:06 46.19099 -95.04687 34997 ft 505 kts 117°
2026-05-06 01:07 46.16206 -94.95518 34994 ft 506 kts 118°
2026-05-06 01:07 46.13288 -94.86296 34992 ft 505 kts 118°
2026-05-06 01:08 46.10357 -94.77074 34993 ft 505 kts 118°
2026-05-06 01:08 46.08887 -94.72466 34595 ft 512 kts 118°
2026-05-06 01:08 46.07386 -94.67774 33770 ft 516 kts 118°
2026-05-06 01:08 46.05880 -94.63068 32822 ft 517 kts 118°
2026-05-06 01:09 46.04375 -94.58368 31925 ft 517 kts 118°
2026-05-06 01:09 46.02867 -94.53665 31022 ft 517 kts 118°
2026-05-06 01:09 46.01361 -94.48974 30356 ft 513 kts 118°
2026-05-06 01:09 45.99890 -94.44401 29651 ft 508 kts 118°
2026-05-06 01:10 45.98411 -94.39812 28927 ft 502 kts 118°
2026-05-06 01:10 45.96954 -94.35300 28297 ft 494 kts 118°
2026-05-06 01:10 45.95519 -94.30865 27677 ft 487 kts 118°
2026-05-06 01:10 45.94093 -94.26470 26997 ft 481 kts 118°
2026-05-06 01:11 45.92686 -94.22141 26375 ft 475 kts 118°
2026-05-06 01:11 45.91295 -94.17865 25759 ft 470 kts 117°
2026-05-06 01:11 45.89920 -94.13643 25154 ft 464 kts 117°
2026-05-06 01:11 45.88551 -94.09472 24560 ft 458 kts 118°
2026-05-06 01:12 45.87192 -94.05368 23981 ft 453 kts 118°
2026-05-06 01:12 45.85840 -94.01306 23371 ft 448 kts 118°
2026-05-06 01:12 45.84501 -93.97289 22678 ft 444 kts 117°
2026-05-06 01:12 45.83197 -93.93375 22062 ft 438 kts 117°
2026-05-06 01:13 45.81890 -93.89455 21445 ft 433 kts 117°
2026-05-06 01:13 45.80595 -93.85575 20854 ft 428 kts 117°
2026-05-06 01:13 45.79318 -93.81750 20273 ft 423 kts 117°
2026-05-06 01:13 45.78051 -93.77965 19712 ft 419 kts 117°
2026-05-06 01:14 45.75147 -93.70965 18959 ft 395 kts 139°
2026-05-06 01:14 45.73026 -93.68701 18687 ft 378 kts 156°
2026-05-06 01:14 45.70646 -93.67260 18424 ft 367 kts 164°
2026-05-06 01:15 45.68249 -93.66027 18122 ft 367 kts 165°
2026-05-06 01:15 45.65830 -93.64802 17838 ft 371 kts 164°
2026-05-06 01:15 45.63388 -93.63535 17546 ft 374 kts 163°
2026-05-06 01:15 45.60959 -93.62246 17253 ft 371 kts 163°
2026-05-06 01:16 45.58549 -93.60958 17017 ft 367 kts 163°
2026-05-06 01:16 45.56168 -93.59672 16756 ft 365 kts 163°
2026-05-06 01:16 45.53800 -93.58384 16482 ft 364 kts 163°
2026-05-06 01:16 45.51438 -93.57098 16196 ft 363 kts 162°
2026-05-06 01:17 45.49086 -93.55821 15941 ft 362 kts 162°
2026-05-06 01:17 45.46737 -93.54546 15679 ft 361 kts 162°
2026-05-06 01:17 45.44396 -93.53278 15421 ft 360 kts 162°
2026-05-06 01:17 45.42053 -93.52010 15155 ft 359 kts 162°
2026-05-06 01:18 45.39716 -93.50747 14896 ft 359 kts 162°
2026-05-06 01:18 45.37384 -93.49488 14633 ft 358 kts 162°
2026-05-06 01:18 45.35056 -93.48232 14371 ft 357 kts 162°
2026-05-06 01:18 45.32732 -93.46986 14088 ft 357 kts 162°
2026-05-06 01:19 45.30412 -93.45748 13827 ft 355 kts 162°
2026-05-06 01:19 45.28101 -93.44517 13536 ft 354 kts 162°
2026-05-06 01:19 45.25802 -93.43292 13249 ft 352 kts 162°
2026-05-06 01:19 45.23547 -93.42091 12986 ft 350 kts 162°
2026-05-06 01:20 45.21268 -93.40879 12726 ft 348 kts 162°
2026-05-06 01:20 45.19011 -93.39678 12465 ft 344 kts 162°
2026-05-06 01:20 45.16798 -93.38501 12202 ft 335 kts 162°
2026-05-06 01:20 45.14651 -93.37359 11974 ft 325 kts 162°
2026-05-06 01:21 45.12583 -93.36138 11729 ft 318 kts 159°
2026-05-06 01:21 45.10587 -93.34862 11497 ft 310 kts 159°
2026-05-06 01:21 45.08635 -93.33617 11275 ft 306 kts 159°
2026-05-06 01:21 45.06699 -93.32395 11033 ft 304 kts 159°
2026-05-06 01:22 45.04744 -93.31301 10769 ft 301 kts 168°
2026-05-06 01:22 45.02704 -93.30766 10532 ft 298 kts 176°
2026-05-06 01:22 45.00642 -93.30424 10283 ft 298 kts 178°
2026-05-06 01:22 44.98577 -93.30107 10034 ft 299 kts 177°
2026-05-06 01:23 44.96534 -93.29778 9791 ft 298 kts 177°
2026-05-06 01:23 44.94487 -93.29429 9485 ft 294 kts 176°
2026-05-06 01:23 44.92476 -93.29071 9201 ft 289 kts 176°
2026-05-06 01:23 44.90496 -93.28711 8934 ft 285 kts 176°
2026-05-06 01:24 44.88547 -93.28353 8660 ft 281 kts 176°
2026-05-06 01:24 44.86619 -93.27996 8390 ft 277 kts 176°
2026-05-06 01:24 44.84708 -93.27642 8123 ft 276 kts 176°
2026-05-06 01:24 44.82824 -93.27291 8016 ft 268 kts 176°
2026-05-06 01:25 44.81013 -93.26952 7990 ft 257 kts 176°
2026-05-06 01:25 44.79277 -93.26586 7976 ft 250 kts 168°
2026-05-06 01:25 44.77796 -93.25380 7909 ft 249 kts 133°
2026-05-06 01:25 44.76798 -93.23381 7724 ft 251 kts 121°
2026-05-06 01:26 44.75896 -93.21260 7508 ft 254 kts 120°
2026-05-06 01:26 44.74992 -93.19111 7298 ft 255 kts 120°
2026-05-06 01:26 44.74090 -93.16977 7081 ft 253 kts 121°
2026-05-06 01:26 44.73188 -93.14855 6871 ft 252 kts 121°
2026-05-06 01:27 44.72289 -93.12749 6664 ft 250 kts 121°
2026-05-06 01:27 44.71407 -93.10693 6460 ft 248 kts 121°
2026-05-06 01:27 44.70516 -93.08624 6253 ft 246 kts 121°
2026-05-06 01:27 44.69633 -93.06576 6062 ft 244 kts 121°
2026-05-06 01:28 44.68756 -93.04545 5856 ft 242 kts 121°
2026-05-06 01:28 44.68021 -93.02435 5606 ft 240 kts 98°
2026-05-06 01:28 44.68171 -93.00193 5411 ft 228 kts 62°
2026-05-06 01:28 44.69084 -92.98494 5232 ft 211 kts 33°
2026-05-06 01:29 44.70329 -92.97629 5069 ft 192 kts
2026-05-06 01:29 44.71599 -92.97481 4896 ft 176 kts 349°
2026-05-06 01:29 44.72735 -92.97855 4742 ft 162 kts 341°
2026-05-06 01:29 44.73799 -92.98308 4595 ft 161 kts 340°
2026-05-06 01:30 44.74868 -92.98769 4462 ft 160 kts 340°
2026-05-06 01:30 44.75926 -92.99225 4329 ft 158 kts 340°
2026-05-06 01:30 44.76971 -92.99674 4194 ft 156 kts 340°
2026-05-06 01:30 44.78004 -93.00120 4065 ft 154 kts 339°
2026-05-06 01:31 44.78856 -93.00929 4048 ft 151 kts 304°
2026-05-06 01:31 44.79488 -93.02175 3845 ft 159 kts 308°
2026-05-06 01:31 44.80135 -93.03441 3625 ft 159 kts 304°
2026-05-06 01:31 44.80721 -93.04724 3416 ft 156 kts 303°
2026-05-06 01:32 44.81270 -93.05981 3195 ft 144 kts 303°
2026-05-06 01:32 44.81773 -93.07147 3007 ft 140 kts 303°
2026-05-06 01:32 44.82272 -93.08307 2819 ft 137 kts 303°
2026-05-06 01:32 44.82763 -93.09447 2637 ft 135 kts 303°
2026-05-06 01:33 44.83247 -93.10575 2451 ft 134 kts 303°
2026-05-06 01:33 44.83728 -93.11693 2261 ft 133 kts 303°
2026-05-06 01:33 44.84205 -93.12801 2080 ft 132 kts 303°
2026-05-06 01:33 44.84682 -93.13908 1898 ft 132 kts 303°
2026-05-06 01:34 44.85164 -93.15026 1703 ft 135 kts 303°
2026-05-06 01:34 44.85650 -93.16152 1505 ft 134 kts 302°
2026-05-06 01:34 44.86123 -93.17254 1320 ft 137 kts 301°
2026-05-06 01:34 44.86628 -93.18397 1158 ft 135 kts 300°
2026-05-06 01:35 44.87087 -93.19508 990 ft 132 kts 300°
2026-05-06 01:35 44.87550 -93.20579 831 ft 121 kts 302°
2026-05-06 01:35 44.87936 -93.21462 820 ft 85 kts 302°
2026-05-06 01:35 44.88167 -93.21998 822 ft 45 kts 301°
2026-05-06 01:36 44.88215 -93.22161 825 ft 10 kts 269°
2026-05-06 01:36 44.88183 -93.22232 823 ft 10 kts 226°
2026-05-06 01:36 44.88140 -93.22295 825 ft 10 kts 226°
2026-05-06 01:36 44.88091 -93.22367 825 ft 13 kts 226°
2026-05-06 01:37 44.88036 -93.22447 824 ft 13 kts 225°
2026-05-06 01:37 44.87983 -93.22524 824 ft 13 kts 226°
2026-05-06 01:37 44.87922 -93.22612 825 ft 12 kts 225°
2026-05-06 01:37 44.87861 -93.22696 825 ft 12 kts 224°
2026-05-06 01:38 44.87801 -93.22778 824 ft 12 kts 224°
2026-05-06 01:38 44.87744 -93.22858 824 ft 11 kts 225°
2026-05-06 01:38 44.87678 -93.22913 824 ft 11 kts 180°
2026-05-06 01:38 44.87602 -93.22897 824 ft 11 kts 177°
2026-05-06 01:39 44.87527 -93.22888 824 ft 11 kts 161°
2026-05-06 01:39 44.87495 -93.22846 824 ft 0 kts 133°